Overview Statistics Trail Chart Weather Telemetry Raw packets
 

This is the latest recevied weather packets stored in our database for station/object PTG2-WX. If no packets are shown the sender has not sent any weather packets the latest 10 day(s).

<< 2 3 4 5 6 7 8 >>
Time Temp. Humidity Pressure Rain* Wind** Luminosity Snow
1788319048 13.89° C 90% 1018.6 hPa - - - -
1788315435 13.33° C 90% 1018.4 hPa - - - -
1788311834 13.89° C 89% 1018.4 hPa - - - -
1788308235 14.44° C 89% 1018.3 hPa - - - -
1788304634 15° C 87% 1018 hPa - - - -
1788301034 15.56° C 88% 1017.9 hPa - - - -
1788297434 15.56° C 88% 1017.8 hPa - - - -
1788293835 16.67° C 84% 1017.8 hPa - - - -
1788286634 18.33° C 74% 1018.2 hPa - - - -
1788283034 18.89° C 73% 1017.7 hPa - - - -
1788279434 20° C 64% 1017.1 hPa - - - -
1788275834 20.56° C 62% 1017.1 hPa - - - -
1788272237 21.67° C 59% 1017.1 hPa - - - -
1788268634 22.22° C 54% 1017 hPa - - - -
1788265034 23.33° C 51% 1016.8 hPa - - - -
1788261435 23.33° C 53% 1016.8 hPa - - - -
1788257833 21.67° C 57% 1017.3 hPa - - - -
1788254234 21.11° C 60% 1017.2 hPa - - - -
1788250635 20.56° C 61% 1017.5 hPa - - - -
1788247033 19.44° C 63% 1017.8 hPa - - - -
1788243434 18.33° C 66% 1018.3 hPa - - - -
1788239835 17.22° C 69% 1018.1 hPa - - - -
1788236234 15.56° C 76% 1018.1 hPa - - - -
1788232633 14.44° C 82% 1017.9 hPa - - - -
1788229034 14.44° C 83% 1017.9 hPa - - - -

* Rain since midnight (hover to see other rain measurements)
** Current wind speed in m/s (hover to see current wind gust speed)